TANDEM-X

Last updated on Thu Jul 03 2025 00:02:29 GMT+0000 (Coordinated Universal Time)

1 36605U 10030A 25182.77252143 .00000424 00000+0 23393-4 0 9996 2 36605 97.4457 190.4936 0001866 88.7228 271.4220 15.19153808833447
UTC large
Height (km)
Speed (km/s)
/
Latitude / Longitude
Inclination (degrees)
Orbital Period (minutes)
Azimuth
Elevation
Range (km)
Doppler Factor

Next 0 passes for location: London (51.5072 / 0.1276)

Sorry there are no passes over London.